| time (UTC) | temp C | wind direction | speed KPH | gust KPH | rain 1hr cm | rain 24hr cm | rain mn cm | humidity % | barometer mb |
| 20260505171303 | 13 | 13 | 1.6 | 6.4 | 0.00 | 0.00 | 0.00 | 67 | 1013.4 |
| 20260505170803 | 13 | 346 | 1.6 | 8.0 | 0.00 | 0.00 | 0.00 | 63 | 1013.3 |
| 20260505170303 | 13 | 304 | 0.0 | 1.6 | 0.00 | 0.00 | 0.00 | 65 | 1013.3 |
| 20260505165803 | 13 | 356 | 1.6 | 4.8 | 0.00 | 0.00 | 0.00 | 64 | 1013.4 |
| 20260505165306 | 13 | 311 | 0.0 | 6.4 | 0.00 | 0.00 | 0.00 | 64 | 1013.3 |
| 20260505164803 | 13 | 347 | 0.0 | 4.8 | 0.00 | 0.00 | 0.00 | 64 | 1013.3 |
| 20260505164303 | 13 | 336 | 0.0 | 3.2 | 0.00 | 0.00 | 0.00 | 65 | 1013.4 |
| 20260505163803 | 13 | 338 | 0.0 | 6.4 | 0.00 | 0.00 | 0.00 | 63 | 1013.4 |
| 20260505163303 | 13 | 243 | 0.0 | 3.2 | 0.00 | 0.00 | 0.00 | 66 | 1013.2 |
| 20260505162803 | 13 | 359 | 0.0 | 1.6 | 0.00 | 0.00 | 0.00 | 68 | 1013.2 |
| 20260505162306 | 13 | 5 | 1.6 | 4.8 | 0.00 | 0.00 | 0.00 | 67 | 1013.3 |
| 20260505161803 | 13 | 342 | 1.6 | 8.0 | 0.00 | 0.00 | 0.00 | 66 | 1013.2 |
| 20260505161303 | 13 | 317 | 0.0 | 8.0 | 0.00 | 0.00 | 0.00 | 68 | 1013.3 |
| 20260505160803 | 13 | 260 | 0.0 | 1.6 | 0.00 | 0.00 | 0.00 | 68 | 1013.3 |
| 20260505160303 | 12 | 267 | 1.6 | 4.8 | 0.00 | 0.00 | 0.00 | 68 | 1013.3 |
| 20260505153303 | 13 | 234 | 0.0 | 6.4 | 0.00 | 0.00 | 0.00 | 68 | 1013.5 |
| 20260505152803 | 13 | 355 | 0.0 | 4.8 | 0.00 | 0.00 | 0.00 | 68 | 1013.4 |
| 20260505152305 | 13 | 242 | 0.0 | 4.8 | 0.00 | 0.00 | 0.00 | 69 | 1013.5 |
| 20260505151803 | 13 | 349 | 0.0 | 1.6 | 0.00 | 0.00 | 0.00 | 69 | 1013.6 |
| 20260505151303 | 13 | 288 | 1.6 | 4.8 | 0.00 | 0.00 | 0.00 | 69 | 1013.5 |
| 20260505150803 | 13 | 257 | 1.6 | 8.0 | 0.00 | 0.00 | 0.00 | 69 | 1013.7 |
| 20260505150303 | 13 | 280 | 1.6 | 8.0 | 0.00 | 0.00 | 0.00 | 68 | 1013.7 |
| 20260505140303 | 14 | 334 | 1.6 | 8.0 | 0.00 | 0.00 | 0.00 | 61 | 1013.9 |
| 20260505130304 | 14 | 41 | 1.6 | 8.0 | 0.00 | 0.00 | 0.00 | 62 | 1013.9 |
| 20260505124804 | 14 | 345 | 1.6 | 12.9 | 0.00 | 0.00 | 0.00 | 60 | 1013.8 |
| 20260505124304 | 14 | 18 | 3.2 | 12.9 | 0.00 | 0.00 | 0.00 | 59 | 1013.8 |
| 20260505123804 | 15 | 88 | 1.6 | 9.7 | 0.00 | 0.00 | 0.00 | 58 | 1013.7 |
| 20260505123304 | 15 | 30 | 1.6 | 8.0 | 0.00 | 0.00 | 0.00 | 60 | 1013.8 |
| 20260505122804 | 15 | 356 | 0.0 | 4.8 | 0.00 | 0.00 | 0.00 | 58 | 1013.7 |
| 20260505122305 | 15 | 1 | 1.6 | 3.2 | 0.00 | 0.00 | 0.00 | 59 | 1013.8 |
| 20260505121804 | 14 | 64 | 1.6 | 8.0 | 0.00 | 0.00 | 0.00 | 58 | 1013.8 |
| 20260505121304 | 15 | 305 | 1.6 | 8.0 | 0.00 | 0.00 | 0.00 | 57 | 1013.8 |
| 20260505120804 | 15 | 42 | 3.2 | 14.5 | 0.00 | 0.00 | 0.00 | 55 | 1013.7 |
| 20260505120304 | 15 | 32 | 1.6 | 8.0 | 0.00 | 0.00 | 0.00 | 58 | 1013.7 |
| 20260505115804 | 15 | 280 | 1.6 | 8.0 | 0.00 | 0.00 | 0.00 | 61 | 1013.6 |
| 20260505115305 | 15 | 349 | 1.6 | 4.8 | 0.00 | 0.00 | 0.00 | 58 | 1013.9 |
| 20260505114804 | 15 | 288 | 1.6 | 14.5 | 0.00 | 0.00 | 0.00 | 58 | 1013.8 |
| 20260505114304 | 16 | 161 | 1.6 | 8.0 | 0.00 | 0.00 | 0.00 | 56 | 1013.8 |
| 20260505113804 | 16 | 286 | 1.6 | 8.0 | 0.00 | 0.00 | 0.00 | 62 | 1014.0 |
| 20260505113304 | 16 | 276 | 1.6 | 8.0 | 0.00 | 0.00 | 0.00 | 57 | 1013.9 |
| 20260505112804 | 15 | 39 | 1.6 | 6.4 | 0.00 | 0.00 | 0.00 | 60 | 1014.1 |
| 20260505112305 | 15 | 238 | 3.2 | 9.7 | 0.00 | 0.00 | 0.00 | 59 | 1014.1 |
| 20260505111804 | 15 | 270 | 1.6 | 14.5 | 0.00 | 0.00 | 0.00 | 58 | 1014.1 |
| 20260505111304 | 15 | 4 | 1.6 | 12.9 | 0.00 | 0.00 | 0.00 | 61 | 1014.0 |
| 20260505110804 | 15 | 295 | 1.6 | 6.4 | 0.00 | 0.00 | 0.00 | 62 | 1013.9 |
| 20260505110304 | 14 | 97 | 1.6 | 8.0 | 0.00 | 0.00 | 0.00 | 62 | 1014.0 |
| 20260505101804 | 14 | 347 | 4.8 | 12.9 | 0.00 | 0.00 | 0.00 | 66 | 1014.1 |
| 20260505101304 | 13 | 4 | 4.8 | 14.5 | 0.00 | 0.00 | 0.00 | 62 | 1014.2 |
| 20260505100804 | 14 | 254 | 3.2 | 14.5 | 0.00 | 0.00 | 0.00 | 64 | 1014.2 |
| 20260505100304 | 14 | 338 | 1.6 | 12.9 | 0.00 | 0.00 | 0.00 | 64 | 1014.0 |
| 20260505095804 | 13 | 259 | 3.2 | 11.3 | 0.00 | 0.00 | 0.00 | 64 | 1014.1 |
| 20260505095305 | 13 | 98 | 3.2 | 11.3 | 0.00 | 0.00 | 0.00 | 64 | 1014.3 |
| 20260505094804 | 13 | 337 | 1.6 | 9.7 | 0.00 | 0.00 | 0.00 | 65 | 1014.1 |
| 20260505094304 | 13 | 11 | 1.6 | 9.7 | 0.00 | 0.00 | 0.00 | 68 | 1014.2 |
| 20260505093804 | 13 | 342 | 1.6 | 6.4 | 0.00 | 0.00 | 0.00 | 69 | 1014.1 |
| 20260505093304 | 13 | 235 | 1.6 | 11.3 | 0.00 | 0.00 | 0.00 | 69 | 1014.2 |
| 20260505092804 | 13 | 102 | 3.2 | 9.7 | 0.00 | 0.00 | 0.00 | 68 | 1014.3 |
| 20260505092305 | 12 | 258 | 3.2 | 14.5 | 0.00 | 0.00 | 0.00 | 69 | 1014.2 |
| 20260505091804 | 12 | 218 | 1.6 | 14.5 | 0.00 | 0.00 | 0.00 | 68 | 1014.3 |
| 20260505091304 | 12 | 273 | 1.6 | 6.4 | 0.00 | 0.00 | 0.00 | 71 | 1014.3 |
| 20260505090804 | 12 | 151 | 1.6 | 8.0 | 0.00 | 0.00 | 0.00 | 70 | 1014.2 |
| 20260505090304 | 12 | 44 | 1.6 | 8.0 | 0.00 | 0.00 | 0.00 | 69 | 1014.2 |
| 20260505085804 | 12 | 11 | 1.6 | 11.3 | 0.00 | 0.00 | 0.00 | 73 | 1014.2 |
| 20260505085305 | 12 | 352 | 1.6 | 8.0 | 0.00 | 0.00 | 0.00 | 71 | 1014.2 |
| 20260505084804 | 12 | 10 | 3.2 | 8.0 | 0.00 | 0.00 | 0.00 | 71 | 1014.2 |
| 20260505084304 | 11 | 103 | 1.6 | 9.7 | 0.00 | 0.00 | 0.00 | 71 | 1014.2 |
| 20260505083804 | 12 | 356 | 1.6 | 8.0 | 0.00 | 0.00 | 0.00 | 73 | 1014.3 |
| 20260505083304 | 11 | 93 | 1.6 | 9.7 | 0.00 | 0.00 | 0.00 | 73 | 1014.2 |
| 20260505082804 | 12 | 359 | 1.6 | 9.7 | 0.00 | 0.00 | 0.00 | 73 | 1014.3 |
| 20260505082305 | 11 | 31 | 3.2 | 11.3 | 0.00 | 0.00 | 0.00 | 73 | 1014.3 |
| 20260505081804 | 11 | 331 | 3.2 | 8.0 | 0.00 | 0.00 | 0.00 | 74 | 1014.5 |
| 20260505081304 | 11 | 326 | 1.6 | 11.3 | 0.00 | 0.00 | 0.00 | 74 | 1014.4 |
| 20260505080804 | 10 | 18 | 1.6 | 6.4 | 0.00 | 0.00 | 0.00 | 75 | 1014.4 |
| 20260505080304 | 10 | 293 | 1.6 | 11.3 | 0.00 | 0.00 | 0.00 | 76 | 1014.3 |
| 20260505075804 | 10 | 350 | 1.6 | 9.7 | 0.00 | 0.00 | 0.00 | 76 | 1014.4 |
| 20260505075304 | 10 | 4 | 1.6 | 8.0 | 0.00 | 0.00 | 0.00 | 76 | 1014.4 |
| 20260505074804 | 10 | 335 | 3.2 | 9.7 | 0.00 | 0.00 | 0.00 | 76 | 1014.4 |
| 20260505074304 | 10 | 352 | 3.2 | 14.5 | 0.00 | 0.00 | 0.00 | 76 | 1014.4 |
| 20260505073804 | 9 | 326 | 3.2 | 6.4 | 0.00 | 0.00 | 0.00 | 77 | 1014.5 |
| 20260505073304 | 9 | 333 | 1.6 | 8.0 | 0.00 | 0.00 | 0.00 | 78 | 1014.6 |
| 20260505072804 | 9 | 20 | 1.6 | 9.7 | 0.00 | 0.00 | 0.00 | 79 | 1014.5 |
| 20260505072305 | 9 | 1 | 1.6 | 8.0 | 0.00 | 0.00 | 0.00 | 79 | 1014.6 |
| 20260505071804 | 9 | 28 | 1.6 | 8.0 | 0.00 | 0.00 | 0.00 | 80 | 1014.7 |
| 20260505071304 | 9 | 32 | 1.6 | 6.4 | 0.00 | 0.00 | 0.00 | 80 | 1014.7 |
| 20260505070804 | 9 | 359 | 1.6 | 8.0 | 0.00 | 0.00 | 0.00 | 80 | 1014.7 |
| 20260505070304 | 9 | 96 | 1.6 | 8.0 | 0.00 | 0.00 | 0.00 | 80 | 1014.6 |
| 20260505065804 | 9 | 23 | 1.6 | 6.4 | 0.00 | 0.00 | 0.00 | 80 | 1014.5 |
| 20260505065304 | 8 | 25 | 1.6 | 4.8 | 0.00 | 0.00 | 0.00 | 81 | 1014.6 |
| 20260505064804 | 8 | 245 | 1.6 | 8.0 | 0.00 | 0.00 | 0.00 | 81 | 1014.8 |
| 20260505064304 | 8 | 358 | 1.6 | 6.4 | 0.00 | 0.00 | 0.00 | 81 | 1014.7 |
| 20260505063804 | 8 | 4 | 1.6 | 6.4 | 0.00 | 0.00 | 0.00 | 82 | 1014.7 |
| 20260505063304 | 8 | 13 | 1.6 | 4.8 | 0.00 | 0.00 | 0.00 | 83 | 1014.6 |
| 20260505062804 | 8 | 349 | 1.6 | 8.0 | 0.00 | 0.00 | 0.00 | 83 | 1014.7 |
| 20260505062304 | 8 | 26 | 0.0 | 3.2 | 0.00 | 0.00 | 0.00 | 83 | 1014.7 |
| 20260505061804 | 8 | 306 | 1.6 | 6.4 | 0.00 | 0.00 | 0.00 | 83 | 1014.7 |
| 20260505061304 | 8 | 4 | 1.6 | 4.8 | 0.00 | 0.00 | 0.00 | 83 | 1014.8 |
| 20260505060804 | 8 | 296 | 0.0 | 4.8 | 0.00 | 0.00 | 0.00 | 83 | 1014.8 |
| 20260505060304 | 8 | 9 | 1.6 | 1.6 | 0.00 | 0.00 | 0.00 | 84 | 1014.8 |
| 20260505055804 | 8 | 330 | 1.6 | 6.4 | 0.00 | 0.00 | 0.00 | 84 | 1014.7 |
| 20260505055304 | 8 | 358 | 1.6 | 8.0 | 0.00 | 0.00 | 0.00 | 84 | 1014.8 |
| 20260505054804 | 8 | 49 | 0.0 | 3.2 | 0.00 | 0.00 | 0.00 | 85 | 1014.8 |
| 20260505054304 | 8 | 351 | 0.0 | 3.2 | 0.00 | 0.00 | 0.00 | 85 | 1014.7 |
| 20260505053804 | 8 | 347 | 0.0 | 1.6 | 0.00 | 0.00 | 0.00 | 86 | 1014.7 |
| 20260505053304 | 8 | 12 | 0.0 | 1.6 | 0.00 | 0.00 | 0.00 | 86 | 1014.7 |
| 20260505052805 | 8 | 17 | 0.0 | 3.2 | 0.00 | 0.00 | 0.00 | 86 | 1014.8 |
| 20260505052305 | 8 | 320 | 0.0 | 1.6 | 0.00 | 0.00 | 0.00 | 85 | 1014.8 |
| 20260505051804 | 8 | 335 | 0.0 | 0.0 | 0.00 | 0.00 | 0.00 | 85 | 1014.8 |
| 20260505051305 | 8 | 321 | 0.0 | 1.6 | 0.00 | 0.00 | 0.00 | 85 | 1014.7 |
| 20260505050805 | 8 | 8 | 0.0 | 3.2 | 0.00 | 0.00 | 0.00 | 85 | 1014.8 |
| 20260505050305 | 8 | 15 | 0.0 | 3.2 | 0.00 | 0.00 | 0.00 | 84 | 1014.7 |
| 20260505041305 | 8 | 347 | 1.6 | 4.8 | 0.00 | 0.00 | 0.00 | 85 | 1014.4 |
| 20260505040805 | 8 | 349 | 0.0 | 4.8 | 0.00 | 0.00 | 0.00 | 85 | 1014.4 |
| 20260505040305 | 8 | 347 | 1.6 | 4.8 | 0.00 | 0.00 | 0.00 | 86 | 1014.3 |
| 20260505035805 | 8 | 359 | 1.6 | 6.4 | 0.00 | 0.00 | 0.00 | 86 | 1014.2 |
| 20260505035305 | 8 | 353 | 0.0 | 3.2 | 0.00 | 0.00 | 0.00 | 87 | 1014.3 |
| 20260505034805 | 8 | 342 | 1.6 | 4.8 | 0.00 | 0.00 | 0.00 | 87 | 1014.4 |
| 20260505034305 | 8 | 0 | 1.6 | 6.4 | 0.00 | 0.00 | 0.00 | 87 | 1014.3 |
| 20260505033805 | 8 | 349 | 0.0 | 3.2 | 0.00 | 0.00 | 0.00 | 88 | 1014.4 |
| 20260505033305 | 8 | 2 | 1.6 | 3.2 | 0.00 | 0.00 | 0.00 | 89 | 1014.5 |
| 20260505032805 | 8 | 357 | 1.6 | 3.2 | 0.00 | 0.00 | 0.00 | 89 | 1014.5 |
| 20260505032305 | 8 | 1 | 0.0 | 4.8 | 0.00 | 0.00 | 0.00 | 90 | 1014.6 |
| 20260505031805 | 8 | 311 | 0.0 | 3.2 | 0.00 | 0.00 | 0.00 | 90 | 1014.7 |
| 20260505031305 | 8 | 356 | 0.0 | 3.2 | 0.00 | 0.00 | 0.00 | 90 | 1014.6 |
| 20260505030805 | 8 | 323 | 0.0 | 3.2 | 0.00 | 0.00 | 0.00 | 90 | 1014.6 |
| 20260505030305 | 8 | 333 | 0.0 | 0.0 | 0.00 | 0.00 | 0.00 | 90 | 1014.6 |
| 20260505025805 | 8 | 333 | 0.0 | 0.0 | 0.00 | 0.00 | 0.00 | 90 | 1014.6 |
| 20260505025305 | 7 | 358 | 0.0 | 0.0 | 0.00 | 0.00 | 0.00 | 90 | 1014.8 |
| 20260505024805 | 7 | 358 | 0.0 | 0.0 | 0.00 | 0.00 | 0.00 | 90 | 1014.8 |
| 20260505024305 | 7 | 357 | 0.0 | 0.0 | 0.00 | 0.00 | 0.00 | 90 | 1014.7 |
| 20260505023805 | 7 | 356 | 0.0 | 0.0 | 0.00 | 0.00 | 0.00 | 90 | 1014.7 |
| 20260505023305 | 8 | 357 | 0.0 | 0.0 | 0.00 | 0.00 | 0.00 | 89 | 1014.7 |
| 20260505022805 | 8 | 357 | 0.0 | 0.0 | 0.00 | 0.00 | 0.00 | 89 | 1014.6 |
| 20260505022305 | 8 | 357 | 0.0 | 0.0 | 0.00 | 0.00 | 0.00 | 89 | 1014.5 |
| 20260505021805 | 8 | 357 | 0.0 | 4.8 | 0.00 | 0.00 | 0.00 | 90 | 1014.6 |
| 20260505021305 | 8 | 338 | 0.0 | 3.2 | 0.00 | 0.00 | 0.00 | 90 | 1014.5 |
| 20260505020805 | 8 | 348 | 0.0 | 3.2 | 0.00 | 0.00 | 0.00 | 90 | 1014.6 |
| 20260505020305 | 8 | 18 | 0.0 | 4.8 | 0.00 | 0.00 | 0.00 | 90 | 1014.6 |
| 20260505015805 | 8 | 355 | 0.0 | 3.2 | 0.00 | 0.00 | 0.00 | 90 | 1014.6 |
| 20260505015305 | 8 | 356 | 0.0 | 3.2 | 0.00 | 0.00 | 0.00 | 90 | 1014.6 |
| 20260505014805 | 8 | 354 | 0.0 | 3.2 | 0.00 | 0.00 | 0.00 | 90 | 1014.6 |
| 20260505014307 | 8 | 1 | 0.0 | 3.2 | 0.00 | 0.00 | 0.00 | 90 | 1014.7 |
| 20260505013805 | 8 | 349 | 0.0 | 3.2 | 0.00 | 0.00 | 0.00 | 89 | 1014.8 |
| 20260505013305 | 8 | 345 | 0.0 | 3.2 | 0.00 | 0.00 | 0.00 | 89 | 1014.9 |
| 20260505012805 | 8 | 3 | 0.0 | 1.6 | 0.00 | 0.00 | 0.00 | 89 | 1014.9 |
| 20260505012305 | 8 | 19 | 0.0 | 1.6 | 0.00 | 0.00 | 0.00 | 89 | 1015.0 |
| 20260505011805 | 8 | 20 | 0.0 | 1.6 | 0.00 | 0.00 | 0.00 | 89 | 1015.0 |
| 20260505011305 | 8 | 18 | 0.0 | 1.6 | 0.00 | 0.00 | 0.00 | 89 | 1014.9 |
| 20260505010805 | 8 | 335 | 0.0 | 1.6 | 0.00 | 0.00 | 0.00 | 88 | 1014.9 |
| 20260505010305 | 8 | 357 | 0.0 | 3.2 | 0.00 | 0.00 | 0.00 | 89 | 1015.0 |
| 20260505005805 | 8 | 349 | 0.0 | 1.6 | 0.00 | 0.00 | 0.00 | 88 | 1015.1 |
| 20260505005305 | 8 | 349 | 0.0 | 3.2 | 0.00 | 0.00 | 0.00 | 89 | 1014.9 |
| 20260505004805 | 8 | 359 | 0.0 | 1.6 | 0.00 | 0.00 | 0.00 | 88 | 1015.0 |
| 20260505004305 | 8 | 358 | 0.0 | 1.6 | 0.00 | 0.00 | 0.00 | 88 | 1015.1 |
| 20260505003805 | 8 | 4 | 0.0 | 1.6 | 0.00 | 0.00 | 0.00 | 88 | 1015.1 |
| 20260505003305 | 8 | 5 | 0.0 | 0.0 | 0.00 | 0.00 | 0.00 | 88 | 1015.1 |
| 20260505002805 | 8 | 5 | 0.0 | 0.0 | 0.00 | 0.00 | 0.00 | 88 | 1015.1 |
| 20260505002305 | 8 | 5 | 0.0 | 0.0 | 0.00 | 0.00 | 0.00 | 88 | 1015.2 |
| 20260505001805 | 8 | 5 | 0.0 | 0.0 | 0.00 | 0.00 | 0.00 | 88 | 1015.1 |
| 20260505001305 | 8 | 5 | 0.0 | 0.0 | 0.00 | 0.00 | 0.00 | 88 | 1015.2 |
| 20260505000805 | 8 | 5 | 0.0 | 0.0 | 0.00 | 0.00 | 0.00 | 88 | 1015.2 |
| 20260505000305 | 8 | 5 | 0.0 | 1.6 | 0.00 | 0.00 | 0.00 | 89 | 1015.2 |
| 20260504235805 | 8 | 5 | 0.0 | 1.6 | 0.00 | 0.00 | 0.00 | 89 | 1015.2 |
| 20260504235305 | 8 | 5 | 0.0 | 1.6 | 0.00 | 0.00 | 0.00 | 89 | 1015.3 |
| 20260504234805 | 8 | 5 | 0.0 | 1.6 | 0.00 | 0.00 | 0.00 | 89 | 1015.3 |
| 20260504234305 | 8 | 5 | 0.0 | 0.0 | 0.00 | 0.00 | 0.00 | 89 | 1015.3 |
| 20260504233805 | 8 | 5 | 0.0 | 0.0 | 0.00 | 0.00 | 0.00 | 89 | 1015.2 |
| 20260504233305 | 8 | 5 | 0.0 | 1.6 | 0.00 | 0.00 | 0.00 | 89 | 1015.1 |
| 20260504232805 | 8 | 5 | 0.0 | 0.0 | 0.00 | 0.00 | 0.00 | 89 | 1015.1 |
| 20260504232305 | 8 | 5 | 0.0 | 1.6 | 0.00 | 0.00 | 0.00 | 89 | 1015.1 |
| 20260504231805 | 8 | 5 | 0.0 | 1.6 | 0.00 | 0.00 | 0.00 | 89 | 1015.0 |
| 20260504231305 | 8 | 5 | 0.0 | 0.0 | 0.00 | 0.00 | 0.00 | 89 | 1015.0 |
| 20260504230805 | 9 | 5 | 0.0 | 0.0 | 0.00 | 0.00 | 0.00 | 89 | 1015.1 |
| 20260504230305 | 9 | 6 | 0.0 | 0.0 | 0.00 | 0.00 | 0.00 | 89 | 1015.0 |
| 20260504225805 | 9 | 330 | 0.0 | 3.2 | 0.00 | 0.00 | 0.00 | 89 | 1015.0 |
| 20260504225305 | 9 | 343 | 0.0 | 3.2 | 0.00 | 0.00 | 0.00 | 89 | 1015.1 |
| 20260504224805 | 9 | 343 | 0.0 | 1.6 | 0.00 | 0.00 | 0.00 | 89 | 1015.1 |
| 20260504224305 | 9 | 349 | 0.0 | 1.6 | 0.00 | 0.00 | 0.00 | 89 | 1015.2 |
| 20260504223805 | 9 | 342 | 0.0 | 1.6 | 0.00 | 0.00 | 0.00 | 89 | 1015.2 |
| 20260504223305 | 9 | 345 | 0.0 | 1.6 | 0.00 | 0.00 | 0.00 | 89 | 1015.2 |
| 20260504222805 | 9 | 345 | 0.0 | 1.6 | 0.00 | 0.00 | 0.00 | 89 | 1015.4 |
| 20260504222305 | 9 | 340 | 0.0 | 1.6 | 0.00 | 0.00 | 0.00 | 89 | 1015.4 |
| 20260504221805 | 9 | 301 | 0.0 | 1.6 | 0.00 | 0.00 | 0.00 | 89 | 1015.4 |
| 20260504221305 | 9 | 345 | 0.0 | 0.0 | 0.00 | 0.00 | 0.00 | 88 | 1015.5 |
| 20260504220805 | 9 | 346 | 0.0 | 3.2 | 0.00 | 0.00 | 0.00 | 88 | 1015.4 |
| 20260504220305 | 9 | 330 | 0.0 | 1.6 | 0.00 | 0.00 | 0.00 | 88 | 1015.3 |
| 20260504215805 | 9 | 333 | 0.0 | 1.6 | 0.00 | 0.00 | 0.00 | 88 | 1015.5 |
| 20260504215305 | 9 | 349 | 0.0 | 0.0 | 0.00 | 0.00 | 0.00 | 87 | 1015.4 |
| 20260504214805 | 10 | 349 | 0.0 | 1.6 | 0.00 | 0.00 | 0.00 | 87 | 1015.4 |
| 20260504214305 | 10 | 349 | 0.0 | 1.6 | 0.00 | 0.00 | 0.00 | 87 | 1015.3 |
| 20260504213805 | 10 | 304 | 0.0 | 3.2 | 0.00 | 0.00 | 0.00 | 87 | 1015.4 |
| 20260504213305 | 10 | 349 | 0.0 | 1.6 | 0.00 | 0.00 | 0.00 | 87 | 1015.5 |
| 20260504212805 | 10 | 349 | 0.0 | 3.2 | 0.00 | 0.00 | 0.00 | 87 | 1015.5 |
| 20260504212305 | 10 | 312 | 0.0 | 3.2 | 0.00 | 0.00 | 0.00 | 87 | 1015.5 |
| 20260504211805 | 10 | 354 | 0.0 | 1.6 | 0.00 | 0.00 | 0.00 | 87 | 1015.5 |
| 20260504211306 | 10 | 335 | 0.0 | 1.6 | 0.00 | 0.00 | 0.00 | 87 | 1015.4 |
| 20260504210805 | 10 | 318 | 0.0 | 0.0 | 0.00 | 0.00 | 0.00 | 87 | 1015.5 |
| 20260504210306 | 10 | 319 | 0.0 | 1.6 | 0.00 | 0.00 | 0.00 | 87 | 1015.5 |
| 20260504205805 | 10 | 352 | 0.0 | 1.6 | 0.00 | 0.00 | 0.00 | 87 | 1015.4 |
| 20260504205306 | 10 | 25 | 0.0 | 1.6 | 0.00 | 0.00 | 0.00 | 87 | 1015.5 |
| 20260504204806 | 10 | 321 | 0.0 | 1.6 | 0.00 | 0.00 | 0.00 | 87 | 1015.5 |
| 20260504204306 | 10 | 321 | 0.0 | 3.2 | 0.00 | 0.00 | 0.00 | 87 | 1015.5 |
| 20260504203806 | 10 | 34 | 0.0 | 1.6 | 0.00 | 0.00 | 0.00 | 87 | 1015.5 |
| 20260504203306 | 10 | 349 | 0.0 | 1.6 | 0.00 | 0.00 | 0.00 | 87 | 1015.5 |
| 20260504202806 | 10 | 30 | 0.0 | 0.0 | 0.00 | 0.00 | 0.00 | 86 | 1015.5 |
| 20260504202306 | 10 | 37 | 0.0 | 1.6 | 0.00 | 0.00 | 0.00 | 86 | 1015.5 |
| 20260504201806 | 11 | 333 | 0.0 | 3.2 | 0.00 | 0.00 | 0.00 | 86 | 1015.5 |
| 20260504201306 | 11 | 357 | 0.0 | 1.6 | 0.00 | 0.00 | 0.00 | 86 | 1015.4 |
| 20260504200806 | 11 | 326 | 0.0 | 3.2 | 0.00 | 0.00 | 0.00 | 86 | 1015.4 |
| 20260504200306 | 11 | 343 | 0.0 | 1.6 | 0.00 | 0.00 | 0.00 | 86 | 1015.2 |
| 20260504195806 | 11 | 343 | 0.0 | 1.6 | 0.00 | 0.00 | 0.00 | 85 | 1015.2 |
| 20260504195306 | 11 | 343 | 0.0 | 3.2 | 0.00 | 0.00 | 0.00 | 85 | 1015.2 |
| 20260504194806 | 11 | 326 | 0.0 | 0.0 | 0.00 | 0.00 | 0.00 | 85 | 1015.3 |
| 20260504194306 | 11 | 326 | 0.0 | 1.6 | 0.00 | 0.00 | 0.00 | 85 | 1015.1 |
| 20260504193806 | 11 | 330 | 0.0 | 0.0 | 0.00 | 0.00 | 0.00 | 84 | 1015.0 |
| 20260504193306 | 12 | 330 | 0.0 | 1.6 | 0.00 | 0.00 | 0.00 | 84 | 1014.7 |
| 20260504192806 | 12 | 330 | 0.0 | 1.6 | 0.00 | 0.00 | 0.00 | 83 | 1014.7 |
| 20260504192306 | 12 | 285 | 0.0 | 0.0 | 0.00 | 0.00 | 0.00 | 82 | 1014.8 |
| 20260504191806 | 12 | 285 | 0.0 | 0.0 | 0.00 | 0.00 | 0.00 | 81 | 1014.9 |
| 20260504191306 | 13 | 285 | 0.0 | 0.0 | 0.00 | 0.00 | 0.00 | 80 | 1014.8 |
| 20260504190806 | 13 | 284 | 0.0 | 0.0 | 0.00 | 0.00 | 0.00 | 78 | 1014.8 |
| 20260504190306 | 14 | 297 | 0.0 | 1.6 | 0.00 | 0.00 | 0.00 | 77 | 1014.8 |
| 20260504185806 | 15 | 305 | 0.0 | 0.0 | 0.00 | 0.00 | 0.00 | 76 | 1014.7 |
| 20260504185306 | 15 | 304 | 0.0 | 0.0 | 0.00 | 0.00 | 0.00 | 77 | 1014.6 |
| 20260504184806 | 15 | 304 | 0.0 | 3.2 | 0.00 | 0.00 | 0.00 | 76 | 1014.7 |
| 20260504184306 | 15 | 340 | 0.0 | 1.6 | 0.00 | 0.00 | 0.00 | 77 | 1014.7 |
| 20260504183806 | 15 | 37 | 0.0 | 1.6 | 0.00 | 0.00 | 0.00 | 77 | 1014.7 |
| 20260504183306 | 15 | 47 | 0.0 | 1.6 | 0.00 | 0.00 | 0.00 | 78 | 1014.8 |
| 20260504182806 | 15 | 44 | 0.0 | 3.2 | 0.00 | 0.00 | 0.00 | 79 | 1014.7 |
| 20260504182306 | 15 | 285 | 0.0 | 1.6 | 0.00 | 0.00 | 0.00 | 79 | 1014.7 |
| 20260504181806 | 15 | 354 | 0.0 | 1.6 | 0.00 | 0.03 | 0.00 | 77 | 1014.5 |
| 20260504181306 | 15 | 19 | 0.0 | 4.8 | 0.00 | 0.03 | 0.00 | 76 | 1014.6 |
| 20260504180806 | 16 | 278 | 0.0 | 3.2 | 0.00 | 0.03 | 0.00 | 75 | 1014.5 |
| 20260504180306 | 16 | 198 | 0.0 | 3.2 | 0.00 | 0.03 | 0.00 | 76 | 1014.5 |
| 20260504175806 | 16 | 344 | 0.0 | 4.8 | 0.00 | 0.03 | 0.00 | 76 | 1014.4 |
| 20260504175306 | 16 | 341 | 0.0 | 4.8 | 0.00 | 0.03 | 0.00 | 75 | 1014.5 |
| 20260504174806 | 16 | 27 | 1.6 | 3.2 | 0.00 | 0.03 | 0.00 | 75 | 1014.5 |
| 20260504174306 | 16 | 288 | 1.6 | 8.0 | 0.00 | 0.03 | 0.00 | 76 | 1014.4 |
| 20260504173806 | 15 | 73 | 0.0 | 4.8 | 0.00 | 0.03 | 0.00 | 76 | 1014.4 |
| 20260504173306 | 16 | 354 | 0.0 | 1.6 | 0.00 | 0.03 | 0.00 | 76 | 1014.3 |
| 20260504172806 | 16 | 272 | 0.0 | 3.2 | 0.00 | 0.03 | 0.00 | 77 | 1014.4 |
| 20260504172306 | 15 | 252 | 0.0 | 1.6 | 0.00 | 0.03 | 0.00 | 77 | 1014.4 |
| 20260504171806 | 15 | 248 | 0.0 | 3.2 | 0.00 | 0.03 | 0.00 | 78 | 1014.6 |